Location: Unspecified
(0.0000°N, 0.0000°E)
Time: 00:12:24
(UTC+00:00)

COSMOS 2452 - Pass Details

Date: 24 May 2026
Orbit: 1481 x 1507 km, 82.5° (Epoch: 10 June)

Event Time Altitude Azimuth Distance (km) Brightness Sun altitude
Rises 01:44:29 0° 2° (N) 4,594 ? -56.5°
Reaches altitude 10° 01:47:23 10° 4° (N) 3,614 ? -55.9°
Enters shadow 01:48:01 13° 5° (N) 3,401 ? -55.8°
